Time,TemperatureF,DewpointF,PressureIn,WindDirection,WindDirectionDegrees,WindSpeedMPH,WindSpeedGustMPH,Humidity,HourlyPrecipIn,Conditions,Clouds,dailyrainin,SoftwareType,DateUTC
2013-07-10 00:00:00,78.0,74.5,30.01,West,273,0.0,3.0,89,0.00,,---,0.00,VWS V14.01,2013-07-10 04:00:00,
2013-07-10 00:01:00,78.0,74.5,30.01,West,276,1.0,1.0,89,0.00,,---,0.00,VWS V14.01,2013-07-10 04:01:00,
2013-07-10 00:06:00,78.1,74.6,30.01,West,272,0.0,6.0,89,0.00,,---,0.00,VWS V14.01,2013-07-10 04:06:00,
2013-07-10 00:10:00,78.1,74.6,30.00,WSW,256,3.0,6.0,89,0.00,,---,0.00,VWS V14.01,2013-07-10 04:10:00,
2013-07-10 00:11:00,78.2,74.7,30.01,WSW,257,2.0,4.0,89,0.00,,---,0.00,VWS V14.01,2013-07-10 04:11:00,
2013-07-10 00:16:00,78.2,74.7,30.00,WSW,240,3.0,4.0,89,0.00,,---,0.00,VWS V14.01,2013-07-10 04:16:00,
2013-07-10 00:20:00,78.2,74.7,30.00,WSW,245,1.0,4.0,89,0.00,,---,0.00,VWS V14.01,2013-07-10 04:20:00,
2013-07-10 00:21:00,78.2,74.7,30.00,West,274,4.0,4.0,89,0.00,,---,0.00,VWS V14.01,2013-07-10 04:21:00,
2013-07-10 00:26:00,78.1,74.6,30.00,SW,226,2.0,6.0,89,0.00,,---,0.00,VWS V14.01,2013-07-10 04:26:00,
2013-07-10 00:30:00,78.1,74.6,30.00,WSW,258,0.0,6.0,89,0.00,,---,0.00,VWS V14.01,2013-07-10 04:30:00,
2013-07-10 00:31:00,78.1,74.6,30.00,SW,226,4.0,4.0,89,0.00,,---,0.00,VWS V14.01,2013-07-10 04:31:00,
2013-07-10 00:36:00,78.1,74.6,29.99,West,263,2.0,4.0,89,0.00,,---,0.00,VWS V14.01,2013-07-10 04:36:00,
2013-07-10 00:40:00,78.1,74.6,29.99,West,259,1.0,4.0,89,0.00,,---,0.00,VWS V14.01,2013-07-10 04:40:00,
2013-07-10 00:41:00,78.0,74.5,29.99,West,264,2.0,3.0,89,0.00,,---,0.00,VWS V14.01,2013-07-10 04:41:00,
2013-07-10 00:46:00,78.0,74.5,29.99,WSW,249,0.0,5.0,89,0.00,,---,0.00,VWS V14.01,2013-07-10 04:46:00,
2013-07-10 00:50:00,77.9,74.4,29.99,WSW,242,0.0,5.0,89,0.00,,---,0.00,VWS V14.01,2013-07-10 04:50:00,
2013-07-10 00:51:00,77.9,74.4,29.99,WSW,245,2.0,3.0,89,0.00,,---,0.00,VWS V14.01,2013-07-10 04:51:00,
2013-07-10 00:56:00,77.8,74.3,29.99,WSW,242,1.0,3.0,89,0.00,,---,0.00,VWS V14.01,2013-07-10 04:56:00,
2013-07-10 01:00:00,77.7,74.5,29.98,WSW,250,0.0,3.0,90,0.00,,---,0.00,VWS V14.01,2013-07-10 05:00:00,
2013-07-10 01:01:00,77.6,74.4,29.98,West,267,0.0,3.0,90,0.00,,---,0.00,VWS V14.01,2013-07-10 05:01:00,
2013-07-10 01:06:00,77.5,74.3,29.99,WSW,250,4.0,5.0,90,0.00,,---,0.00,VWS V14.01,2013-07-10 05:06:00,
2013-07-10 01:10:00,77.5,74.3,29.98,West,280,2.0,5.0,90,0.00,,---,0.00,VWS V14.01,2013-07-10 05:10:00,
2013-07-10 01:11:00,77.5,74.3,29.98,West,281,3.0,3.0,90,0.00,,---,0.00,VWS V14.01,2013-07-10 05:11:00,
2013-07-10 01:16:00,77.5,74.3,29.98,West,259,2.0,5.0,90,0.00,,---,0.00,VWS V14.01,2013-07-10 05:16:00,
2013-07-10 01:20:00,77.5,74.3,29.98,West,266,2.0,5.0,90,0.00,,---,0.00,VWS V14.01,2013-07-10 05:20:00,
2013-07-10 01:21:00,77.5,74.3,29.98,WNW,287,2.0,2.0,90,0.00,,---,0.00,VWS V14.01,2013-07-10 05:21:00,
2013-07-10 01:26:00,77.3,74.1,29.97,WNW,282,2.0,4.0,90,0.00,,---,0.00,VWS V14.01,2013-07-10 05:26:00,
2013-07-10 01:30:00,77.3,74.1,29.97,West,259,0.0,4.0,90,0.00,,---,0.00,VWS V14.01,2013-07-10 05:30:00,
2013-07-10 01:31:00,77.3,74.5,29.97,West,270,2.0,6.0,91,0.00,,---,0.00,VWS V14.01,2013-07-10 05:31:00,
2013-07-10 01:36:00,77.2,74.4,29.98,West,271,1.0,6.0,91,0.00,,---,0.00,VWS V14.01,2013-07-10 05:36:00,
2013-07-10 01:40:00,77.2,74.4,29.97,West,278,1.0,6.0,91,0.00,,---,0.00,VWS V14.01,2013-07-10 05:40:00,
2013-07-10 01:41:00,77.1,74.3,29.97,WSW,255,0.0,1.0,91,0.00,,---,0.00,VWS V14.01,2013-07-10 05:41:00,
2013-07-10 01:46:00,77.0,74.2,29.97,West,271,2.0,3.0,91,0.00,,---,0.00,VWS V14.01,2013-07-10 05:46:00,
2013-07-10 01:50:00,76.9,74.1,29.97,West,278,0.0,3.0,91,0.00,,---,0.00,VWS V14.01,2013-07-10 05:50:00,
2013-07-10 01:51:00,76.8,74.0,29.98,WNW,283,0.0,1.0,91,0.00,,---,0.00,VWS V14.01,2013-07-10 05:51:00,
2013-07-10 01:56:00,76.6,74.1,29.97,WNW,283,0.0,1.0,92,0.00,,---,0.00,VWS V14.01,2013-07-10 05:56:00,
2013-07-10 02:00:00,76.4,73.9,29.97,WNW,288,1.0,1.0,92,0.00,,---,0.00,VWS V14.01,2013-07-10 06:00:00,
2013-07-10 02:01:00,76.4,73.9,29.97,West,264,1.0,1.0,92,0.00,,---,0.00,VWS V14.01,2013-07-10 06:01:00,
2013-07-10 02:06:00,76.2,74.0,29.97,West,275,2.0,2.0,93,0.00,,---,0.00,VWS V14.01,2013-07-10 06:06:00,
2013-07-10 02:10:00,76.1,73.9,29.97,West,272,1.0,2.0,93,0.00,,---,0.00,VWS V14.01,2013-07-10 06:10:00,
2013-07-10 02:11:00,76.0,73.8,29.97,West,266,0.0,1.0,93,0.00,,---,0.00,VWS V14.01,2013-07-10 06:11:00,
2013-07-10 02:16:00,75.8,73.6,29.97,WNW,285,0.0,2.0,93,0.00,,---,0.00,VWS V14.01,2013-07-10 06:16:00,
2013-07-10 02:20:00,75.7,73.9,29.97,WNW,284,1.0,2.0,94,0.00,,---,0.00,VWS V14.01,2013-07-10 06:20:00,
2013-07-10 02:21:00,75.6,73.8,29.97,West,280,1.0,2.0,94,0.00,,---,0.00,VWS V14.01,2013-07-10 06:21:00,
2013-07-10 02:26:00,75.5,73.7,29.97,West,259,2.0,2.0,94,0.00,,---,0.00,VWS V14.01,2013-07-10 06:26:00,
2013-07-10 02:30:00,75.5,73.7,29.97,West,265,0.0,3.0,94,0.00,,---,0.00,VWS V14.01,2013-07-10 06:30:00,
2013-07-10 02:31:00,75.5,74.0,29.97,WSW,255,1.0,3.0,95,0.00,,---,0.00,VWS V14.01,2013-07-10 06:31:00,
2013-07-10 02:36:00,75.5,73.7,29.97,West,274,0.0,3.0,94,0.00,,---,0.00,VWS V14.01,2013-07-10 06:36:00,
2013-07-10 02:40:00,75.4,73.6,29.97,West,278,0.0,3.0,94,0.00,,---,0.00,VWS V14.01,2013-07-10 06:40:00,
2013-07-10 02:41:00,75.4,73.6,29.97,West,278,0.0,0.0,94,0.00,,---,0.00,VWS V14.01,2013-07-10 06:41:00,
2013-07-10 02:46:00,75.4,73.6,29.97,West,278,0.0,1.0,94,0.00,,---,0.00,VWS V14.01,2013-07-10 06:46:00,
2013-07-10 02:50:00,75.4,73.6,29.97,West,278,0.0,1.0,94,0.00,,---,0.00,VWS V14.01,2013-07-10 06:50:00,
2013-07-10 02:51:00,75.4,73.6,29.97,West,278,0.0,1.0,94,0.00,,---,0.00,VWS V14.01,2013-07-10 06:51:00,
2013-07-10 02:56:00,75.3,73.5,29.97,West,278,0.0,1.0,94,0.00,,---,0.00,VWS V14.01,2013-07-10 06:56:00,
2013-07-10 03:00:00,75.2,73.4,29.97,West,278,0.0,1.0,94,0.00,,---,0.00,VWS V14.01,2013-07-10 07:00:00,
2013-07-10 03:01:00,75.1,73.3,29.97,West,278,0.0,0.0,94,0.00,,---,0.00,VWS V14.01,2013-07-10 07:01:00,
2013-07-10 03:06:00,74.8,73.0,29.96,East,81,1.0,1.0,94,0.00,,---,0.00,VWS V14.01,2013-07-10 07:06:00,
2013-07-10 03:10:00,74.7,72.9,29.96,East,81,0.0,1.0,94,0.00,,---,0.00,VWS V14.01,2013-07-10 07:10:00,
2013-07-10 03:11:00,74.6,73.1,29.96,East,81,0.0,0.0,95,0.00,,---,0.00,VWS V14.01,2013-07-10 07:11:00,
2013-07-10 03:16:00,74.4,72.9,29.96,East,80,0.0,1.0,95,0.00,,---,0.00,VWS V14.01,2013-07-10 07:16:00,
2013-07-10 03:20:00,74.3,72.8,29.96,East,81,0.0,1.0,95,0.00,,---,0.00,VWS V14.01,2013-07-10 07:20:00,
2013-07-10 03:21:00,74.2,73.0,29.96,East,81,0.0,0.0,96,0.00,,---,0.00,VWS V14.01,2013-07-10 07:21:00,
2013-07-10 03:26:00,74.1,72.6,29.96,East,80,0.0,0.0,95,0.00,,---,0.00,VWS V14.01,2013-07-10 07:26:00,
2013-07-10 03:30:00,74.0,72.5,29.96,East,81,0.0,0.0,95,0.00,,---,0.00,VWS V14.01,2013-07-10 07:30:00,
2013-07-10 03:32:00,73.9,72.7,29.96,East,81,0.0,0.0,96,0.00,,---,0.00,VWS V14.01,2013-07-10 07:32:00,
2013-07-10 03:37:00,73.8,72.6,29.96,East,81,0.0,0.0,96,0.00,,---,0.00,VWS V14.01,2013-07-10 07:37:00,
2013-07-10 03:40:00,73.7,72.5,29.95,East,83,0.0,1.0,96,0.00,,---,0.00,VWS V14.01,2013-07-10 07:40:00,
2013-07-10 03:42:00,73.7,72.5,29.95,East,84,0.0,0.0,96,0.00,,---,0.00,VWS V14.01,2013-07-10 07:42:00,
2013-07-10 03:47:00,73.4,72.2,29.96,East,83,0.0,0.0,96,0.00,,---,0.00,VWS V14.01,2013-07-10 07:47:00,
2013-07-10 03:50:00,73.3,72.1,29.96,East,83,0.0,0.0,96,0.00,,---,0.00,VWS V14.01,2013-07-10 07:50:00,
2013-07-10 03:52:00,73.3,72.1,29.96,East,83,0.0,0.0,96,0.00,,---,0.00,VWS V14.01,2013-07-10 07:52:00,
2013-07-10 03:57:00,73.3,72.1,29.96,East,82,0.0,0.0,96,0.00,,---,0.00,VWS V14.01,2013-07-10 07:57:00,
2013-07-10 04:00:00,73.3,72.4,29.96,East,83,0.0,0.0,97,0.00,,---,0.00,VWS V14.01,2013-07-10 08:00:00,
2013-07-10 04:10:00,73.2,72.3,29.96,North,0,0.0,0.0,97,0.00,,---,0.00,VWS V14.01,2013-07-10 08:10:00,
2013-07-10 04:20:00,72.9,72.0,29.96,North,0,0.0,0.0,97,0.00,,---,0.00,VWS V14.01,2013-07-10 08:20:00,
2013-07-10 04:30:00,72.9,72.0,29.96,East,90,0.0,1.0,97,0.00,,---,0.00,VWS V14.01,2013-07-10 08:30:00,
2013-07-10 04:40:00,73.0,72.1,29.96,East,90,0.0,1.0,97,0.00,,---,0.00,VWS V14.01,2013-07-10 08:40:00,
2013-07-10 04:50:00,72.9,72.0,29.96,East,90,0.0,0.0,97,0.00,,---,0.00,VWS V14.01,2013-07-10 08:50:00,
2013-07-10 05:00:00,72.8,71.9,29.96,ESE,112,0.0,1.0,97,0.00,,---,0.00,VWS V14.01,2013-07-10 09:00:00,
2013-07-10 05:10:00,72.7,71.8,29.96,ESE,112,0.0,0.0,97,0.00,,---,0.00,VWS V14.01,2013-07-10 09:10:00,
2013-07-10 05:20:00,72.8,72.2,29.96,SSE,158,0.0,1.0,98,0.00,,---,0.00,VWS V14.01,2013-07-10 09:20:00,
2013-07-10 05:30:00,72.8,71.9,29.96,SE,135,0.0,1.0,97,0.00,,---,0.00,VWS V14.01,2013-07-10 09:30:00,
2013-07-10 05:40:00,72.5,71.9,29.96,SE,135,0.0,0.0,98,0.00,,---,0.00,VWS V14.01,2013-07-10 09:40:00,
2013-07-10 05:50:00,72.6,72.0,29.96,SE,135,0.0,0.0,98,0.00,,---,0.00,VWS V14.01,2013-07-10 09:50:00,
2013-07-10 06:00:00,72.8,72.2,29.96,SE,135,0.0,0.0,98,0.00,,---,0.00,VWS V14.01,2013-07-10 10:00:00,
2013-07-10 06:10:00,72.9,72.3,29.96,SE,135,0.0,0.0,98,0.00,,---,0.00,VWS V14.01,2013-07-10 10:10:00,
2013-07-10 06:20:00,72.7,72.1,29.96,East,90,0.0,1.0,98,0.00,,---,0.00,VWS V14.01,2013-07-10 10:20:00,
2013-07-10 06:30:00,73.1,72.5,29.96,ESE,112,0.0,2.0,98,0.00,,---,0.00,VWS V14.01,2013-07-10 10:30:00,
2013-07-10 06:40:00,73.2,72.6,29.96,South,180,0.0,1.0,98,0.00,,---,0.00,VWS V14.01,2013-07-10 10:40:00,
2013-07-10 06:50:00,72.6,72.0,29.96,SE,135,0.0,0.0,98,0.00,,---,0.00,VWS V14.01,2013-07-10 10:50:00,
2013-07-10 07:00:00,74.6,74.0,29.96,South,186,0.0,0.0,98,0.00,,---,0.00,VWS V14.01,2013-07-10 11:00:00,
2013-07-10 07:01:00,74.7,74.1,29.96,South,186,0.0,0.0,98,0.00,,---,0.00,VWS V14.01,2013-07-10 11:01:00,
2013-07-10 07:06:00,74.7,73.8,29.96,South,186,0.0,0.0,97,0.00,,---,0.00,VWS V14.01,2013-07-10 11:06:00,
2013-07-10 07:10:00,74.7,73.8,29.96,South,186,0.0,0.0,97,0.00,,---,0.00,VWS V14.01,2013-07-10 11:10:00,
2013-07-10 07:11:00,74.7,73.8,29.96,South,184,0.0,0.0,97,0.00,,---,0.00,VWS V14.01,2013-07-10 11:11:00,
2013-07-10 07:16:00,74.5,73.6,29.96,South,184,0.0,0.0,97,0.00,,---,0.00,VWS V14.01,2013-07-10 11:16:00,
2013-07-10 07:20:00,74.5,73.6,29.96,South,184,0.0,0.0,97,0.00,,---,0.00,VWS V14.01,2013-07-10 11:20:00,
2013-07-10 07:21:00,74.5,73.6,29.96,South,184,0.0,0.0,97,0.00,,---,0.00,VWS V14.01,2013-07-10 11:21:00,
2013-07-10 07:26:00,74.6,73.7,29.96,South,184,0.0,0.0,97,0.00,,---,0.00,VWS V14.01,2013-07-10 11:26:00,
2013-07-10 07:30:00,74.7,73.5,29.97,South,184,0.0,0.0,96,0.00,,---,0.00,VWS V14.01,2013-07-10 11:30:00,
2013-07-10 07:31:00,74.7,73.5,29.97,South,184,0.0,0.0,96,0.00,,---,0.00,VWS V14.01,2013-07-10 11:31:00,
2013-07-10 07:36:00,74.8,73.6,29.97,SE,136,0.0,0.0,96,0.00,,---,0.00,VWS V14.01,2013-07-10 11:36:00,
2013-07-10 07:40:00,74.9,73.7,29.97,SE,135,0.0,0.0,96,0.00,,---,0.00,VWS V14.01,2013-07-10 11:40:00,
2013-07-10 07:41:00,74.9,73.7,29.97,SE,136,0.0,0.0,96,0.00,,---,0.00,VWS V14.01,2013-07-10 11:41:00,
2013-07-10 07:46:00,75.2,74.0,29.97,SE,137,0.0,0.0,96,0.00,,---,0.00,VWS V14.01,2013-07-10 11:46:00,
2013-07-10 07:50:00,75.4,73.9,29.97,SE,136,0.0,0.0,95,0.00,,---,0.00,VWS V14.01,2013-07-10 11:50:00,
2013-07-10 07:51:00,75.4,73.9,29.97,SE,136,0.0,0.0,95,0.00,,---,0.00,VWS V14.01,2013-07-10 11:51:00,
2013-07-10 07:56:00,75.7,74.2,29.97,SE,137,0.0,1.0,95,0.00,,---,0.00,VWS V14.01,2013-07-10 11:56:00,
2013-07-10 08:00:00,75.8,73.9,29.97,WSW,251,0.0,1.0,94,0.00,,---,0.00,VWS V14.01,2013-07-10 12:00:00,
2013-07-10 08:01:00,75.8,73.9,29.97,WSW,252,0.0,0.0,94,0.00,,---,0.00,VWS V14.01,2013-07-10 12:01:00,
2013-07-10 08:06:00,76.0,74.2,29.97,WSW,255,0.0,0.0,94,0.00,,---,0.00,VWS V14.01,2013-07-10 12:06:00,
2013-07-10 08:10:00,76.1,74.2,29.97,West,280,2.0,2.0,94,0.00,,---,0.00,VWS V14.01,2013-07-10 12:10:00,
2013-07-10 08:11:00,76.1,73.9,29.97,WNW,285,2.0,3.0,93,0.00,,---,0.00,VWS V14.01,2013-07-10 12:11:00,
2013-07-10 08:16:00,76.1,73.9,29.97,West,259,0.0,3.0,93,0.00,,---,0.00,VWS V14.01,2013-07-10 12:16:00,
2013-07-10 08:20:00,76.2,74.0,29.97,WSW,248,0.0,3.0,93,0.00,,---,0.00,VWS V14.01,2013-07-10 12:20:00,
2013-07-10 08:21:00,76.4,74.6,29.97,SSW,193,1.0,1.0,94,0.00,,---,0.00,VWS V14.01,2013-07-10 12:21:00,
2013-07-10 08:26:00,76.5,74.3,29.98,SSW,200,0.0,2.0,93,0.00,,---,0.00,VWS V14.01,2013-07-10 12:26:00,
2013-07-10 08:30:00,76.7,74.2,29.98,SW,221,0.0,2.0,92,0.00,,---,0.00,VWS V14.01,2013-07-10 12:30:00,
2013-07-10 08:31:00,76.9,74.4,29.98,SW,215,0.0,0.0,92,0.00,,---,0.00,VWS V14.01,2013-07-10 12:31:00,
2013-07-10 08:36:00,77.1,74.6,29.98,West,264,0.0,2.0,92,0.00,,---,0.00,VWS V14.01,2013-07-10 12:36:00,
2013-07-10 08:40:00,77.4,74.9,29.98,West,264,0.0,2.0,92,0.00,,---,0.00,VWS V14.01,2013-07-10 12:40:00,
2013-07-10 08:41:00,77.5,74.7,29.98,West,264,0.0,0.0,91,0.00,,---,0.00,VWS V14.01,2013-07-10 12:41:00,
2013-07-10 08:46:00,77.9,74.7,29.98,West,264,0.0,0.0,90,0.00,,---,0.00,VWS V14.01,2013-07-10 12:46:00,
2013-07-10 08:50:00,78.1,74.9,29.98,West,264,0.0,0.0,90,0.00,,---,0.00,VWS V14.01,2013-07-10 12:50:00,
2013-07-10 08:51:00,78.1,74.6,29.98,West,264,0.0,0.0,89,0.00,,---,0.00,VWS V14.01,2013-07-10 12:51:00,
2013-07-10 08:56:00,78.1,74.6,29.98,West,263,0.0,0.0,89,0.00,,---,0.00,VWS V14.01,2013-07-10 12:56:00,
2013-07-10 09:00:00,78.1,74.6,29.98,West,263,0.0,0.0,89,0.00,,---,0.00,VWS V14.01,2013-07-10 13:00:00,
2013-07-10 09:01:00,78.2,74.7,29.98,West,263,0.0,0.0,89,0.00,,---,0.00,VWS V14.01,2013-07-10 13:01:00,
2013-07-10 09:06:00,78.2,75.0,29.98,West,263,0.0,0.0,90,0.00,,---,0.00,VWS V14.01,2013-07-10 13:06:00,
2013-07-10 09:10:00,78.1,74.9,29.98,SW,219,1.0,1.0,90,0.00,,---,0.00,VWS V14.01,2013-07-10 13:10:00,
2013-07-10 09:11:00,78.1,74.9,29.98,SSW,193,1.0,1.0,90,0.00,,---,0.00,VWS V14.01,2013-07-10 13:11:00,
2013-07-10 09:16:00,77.9,75.1,29.98,SSW,193,0.0,1.0,91,0.00,,---,0.00,VWS V14.01,2013-07-10 13:16:00,
2013-07-10 09:20:00,77.8,75.0,29.98,West,281,1.0,2.0,91,0.00,,---,0.00,VWS V14.01,2013-07-10 13:20:00,
2013-07-10 09:21:00,77.7,74.9,29.99,West,278,1.0,2.0,91,0.00,,---,0.00,VWS V14.01,2013-07-10 13:21:00,
2013-07-10 09:26:00,77.4,74.6,29.99,WNW,290,0.0,2.0,91,0.00,,---,0.00,VWS V14.01,2013-07-10 13:26:00,
2013-07-10 09:30:00,77.4,74.6,29.98,WNW,290,0.0,2.0,91,0.00,,---,0.00,VWS V14.01,2013-07-10 13:30:00,
2013-07-10 09:31:00,77.4,74.6,29.98,WSW,253,0.0,1.0,91,0.00,,---,0.00,VWS V14.01,2013-07-10 13:31:00,
2013-07-10 09:36:00,77.2,74.7,29.98,West,260,0.0,1.0,92,0.00,,---,0.00,VWS V14.01,2013-07-10 13:36:00,
2013-07-10 09:40:00,77.2,74.7,29.98,NW,311,0.0,1.0,92,0.00,,---,0.00,VWS V14.01,2013-07-10 13:40:00,
2013-07-10 09:41:00,77.2,74.7,29.98,NW,310,0.0,1.0,92,0.00,,---,0.00,VWS V14.01,2013-07-10 13:41:00,
2013-07-10 09:46:00,77.1,74.9,29.98,WNW,293,1.0,2.0,93,0.00,,---,0.00,VWS V14.01,2013-07-10 13:46:00,
2013-07-10 09:50:00,77.0,74.8,29.99,West,270,1.0,2.0,93,0.00,,---,0.00,VWS V14.01,2013-07-10 13:50:00,
2013-07-10 09:51:00,77.0,74.8,29.99,West,260,1.0,2.0,93,0.00,,---,0.00,VWS V14.01,2013-07-10 13:51:00,
2013-07-10 09:56:00,76.9,74.7,29.98,SW,215,0.0,2.0,93,0.00,,---,0.00,VWS V14.01,2013-07-10 13:56:00,
2013-07-10 10:00:00,76.9,74.7,29.98,SSW,205,3.0,4.0,93,0.00,,---,0.00,VWS V14.01,2013-07-10 14:00:00,
2013-07-10 10:01:00,77.0,74.8,29.98,SW,217,0.0,3.0,93,0.00,,---,0.00,VWS V14.01,2013-07-10 14:01:00,
2013-07-10 10:06:00,77.2,75.0,29.98,ESE,113,0.0,3.0,93,0.00,,---,0.00,VWS V14.01,2013-07-10 14:06:00,
2013-07-10 10:10:00,77.5,75.0,29.98,West,266,0.0,3.0,92,0.00,,---,0.00,VWS V14.01,2013-07-10 14:10:00,
2013-07-10 10:11:00,77.6,75.1,29.98,NNW,341,0.0,1.0,92,0.00,,---,0.00,VWS V14.01,2013-07-10 14:11:00,
2013-07-10 10:16:00,77.9,74.7,29.98,NNW,328,0.0,1.0,90,0.00,,---,0.00,VWS V14.01,2013-07-10 14:16:00,
2013-07-10 10:20:00,77.9,74.4,29.97,WNW,300,1.0,2.0,89,0.00,,---,0.00,VWS V14.01,2013-07-10 14:20:00,
2013-07-10 10:21:00,78.1,74.6,29.98,WNW,300,0.0,1.0,89,0.00,,---,0.00,VWS V14.01,2013-07-10 14:21:00,
2013-07-10 10:26:00,78.6,74.8,29.98,SSW,208,2.0,2.0,88,0.00,,---,0.00,VWS V14.01,2013-07-10 14:26:00,
2013-07-10 10:30:00,78.7,73.8,29.98,SW,235,2.0,4.0,85,0.00,,---,0.00,VWS V14.01,2013-07-10 14:30:00,
2013-07-10 10:31:00,78.8,74.6,29.98,SSE,153,1.0,3.0,87,0.00,,---,0.00,VWS V14.01,2013-07-10 14:31:00,
2013-07-10 10:36:00,79.4,74.2,29.98,West,262,3.0,4.0,84,0.00,,---,0.00,VWS V14.01,2013-07-10 14:36:00,
2013-07-10 10:40:00,79.5,74.2,29.98,WSW,239,2.0,5.0,84,0.00,,---,0.00,VWS V14.01,2013-07-10 14:40:00,
2013-07-10 10:41:00,79.7,74.1,29.98,SW,234,1.0,4.0,83,0.00,,---,0.00,VWS V14.01,2013-07-10 14:41:00,
2013-07-10 10:46:00,80.3,73.6,29.98,WNW,288,5.0,6.0,80,0.00,,---,0.00,VWS V14.01,2013-07-10 14:46:00,
2013-07-10 10:50:00,80.4,74.0,29.98,West,259,1.0,6.0,81,0.00,,---,0.00,VWS V14.01,2013-07-10 14:50:00,
2013-07-10 10:51:00,80.5,74.1,29.98,WNW,298,4.0,7.0,81,0.00,,---,0.00,VWS V14.01,2013-07-10 14:51:00,
2013-07-10 10:56:00,80.6,73.5,29.98,SW,217,3.0,7.0,79,0.00,,---,0.00,VWS V14.01,2013-07-10 14:56:00,
2013-07-10 11:00:00,80.7,73.6,29.98,SSW,201,3.0,7.0,79,0.00,,---,0.00,VWS V14.01,2013-07-10 15:00:00,
2013-07-10 11:01:00,80.7,73.6,29.98,West,271,3.0,8.0,79,0.00,,---,0.00,VWS V14.01,2013-07-10 15:01:00,
2013-07-10 11:06:00,81.1,74.3,29.98,SW,217,5.0,8.0,80,0.00,,---,0.00,VWS V14.01,2013-07-10 15:06:00,
2013-07-10 11:10:00,81.4,73.9,29.98,SW,226,5.0,8.0,78,0.00,,---,0.00,VWS V14.01,2013-07-10 15:10:00,
2013-07-10 11:11:00,81.6,74.1,29.98,WSW,250,4.0,5.0,78,0.00,,---,0.00,VWS V14.01,2013-07-10 15:11:00,
2013-07-10 11:16:00,81.8,74.3,29.98,SW,235,2.0,5.0,78,0.00,,---,0.00,VWS V14.01,2013-07-10 15:16:00,
2013-07-10 11:20:00,81.9,74.8,29.98,WNW,296,1.0,5.0,79,0.00,,---,0.00,VWS V14.01,2013-07-10 15:20:00,
2013-07-10 11:21:00,82.1,74.9,29.98,WNW,285,4.0,4.0,79,0.00,,---,0.00,VWS V14.01,2013-07-10 15:21:00,
2013-07-10 11:26:00,82.3,74.8,29.98,WNW,291,4.0,7.0,78,0.00,,---,0.00,VWS V14.01,2013-07-10 15:26:00,
2013-07-10 11:30:00,82.2,74.7,29.98,NW,306,1.0,7.0,78,0.00,,---,0.00,VWS V14.01,2013-07-10 15:30:00,
2013-07-10 11:31:00,82.2,75.0,29.98,WSW,248,1.0,5.0,79,0.00,,---,0.00,VWS V14.01,2013-07-10 15:31:00,
2013-07-10 11:36:00,82.9,75.3,29.98,WNW,296,4.0,5.0,78,0.00,,---,0.00,VWS V14.01,2013-07-10 15:36:00,
2013-07-10 11:40:00,83.0,75.8,29.98,West,277,2.0,6.0,79,0.00,,---,0.00,VWS V14.01,2013-07-10 15:40:00,
2013-07-10 11:41:00,83.0,75.1,29.98,SW,215,5.0,7.0,77,0.00,,---,0.00,VWS V14.01,2013-07-10 15:41:00,
2013-07-10 11:46:00,83.1,75.9,29.98,SSW,208,3.0,7.0,79,0.00,,---,0.00,VWS V14.01,2013-07-10 15:46:00,
2013-07-10 11:50:00,83.2,76.4,29.98,West,264,2.0,7.0,80,0.00,,---,0.00,VWS V14.01,2013-07-10 15:50:00,
2013-07-10 11:51:00,83.2,75.6,29.98,WNW,290,4.0,6.0,78,0.00,,---,0.00,VWS V14.01,2013-07-10 15:51:00,
2013-07-10 11:57:00,83.3,75.7,29.98,WSW,252,1.0,6.0,78,0.00,,---,0.00,VWS V14.01,2013-07-10 15:57:00,
2013-07-10 12:00:00,83.3,76.1,29.98,SW,222,5.0,6.0,79,0.00,,---,0.00,VWS V14.01,2013-07-10 16:00:00,
2013-07-10 12:02:00,83.3,75.7,29.98,South,173,1.0,5.0,78,0.00,,---,0.00,VWS V14.01,2013-07-10 16:02:00,
2013-07-10 12:07:00,83.2,76.4,29.98,WSW,238,3.0,5.0,80,0.00,,---,0.00,VWS V14.01,2013-07-10 16:07:00,
2013-07-10 12:10:00,83.0,75.4,29.98,WSW,254,5.0,5.0,78,0.00,,---,0.00,VWS V14.01,2013-07-10 16:10:00,
2013-07-10 12:12:00,82.8,75.2,29.98,WSW,245,5.0,5.0,78,0.00,,---,0.00,VWS V14.01,2013-07-10 16:12:00,
2013-07-10 12:17:00,82.6,75.4,29.98,West,266,2.0,5.0,79,0.00,,---,0.00,VWS V14.01,2013-07-10 16:17:00,
2013-07-10 12:20:00,82.7,75.9,29.97,WSW,256,3.0,5.0,80,0.00,,---,0.00,VWS V14.01,2013-07-10 16:20:00,
2013-07-10 12:22:00,82.6,75.4,29.97,WSW,253,2.0,3.0,79,0.00,,---,0.00,VWS V14.01,2013-07-10 16:22:00,
2013-07-10 12:27:00,82.6,76.2,29.97,WSW,256,2.0,3.0,81,0.00,,---,0.00,VWS V14.01,2013-07-10 16:27:00,
2013-07-10 12:30:00,82.6,76.2,29.97,SW,235,0.0,3.0,81,0.00,,---,0.00,VWS V14.01,2013-07-10 16:30:00,
2013-07-10 12:32:00,82.8,77.1,29.97,WSW,240,4.0,4.0,83,0.00,,---,0.00,VWS V14.01,2013-07-10 16:32:00,
2013-07-10 12:37:00,82.7,76.7,29.97,SSW,208,2.0,4.0,82,0.00,,---,0.00,VWS V14.01,2013-07-10 16:37:00,
2013-07-10 12:40:00,82.6,76.2,29.97,WSW,255,1.0,4.0,81,0.00,,---,0.00,VWS V14.01,2013-07-10 16:40:00,
2013-07-10 12:42:00,82.6,76.6,29.97,WSW,242,2.0,4.0,82,0.00,,---,0.00,VWS V14.01,2013-07-10 16:42:00,
2013-07-10 12:47:00,82.5,76.1,29.97,SSE,166,1.0,4.0,81,0.00,,---,0.00,VWS V14.01,2013-07-10 16:47:00,
2013-07-10 12:50:00,82.5,76.1,29.97,SSW,203,3.0,4.0,81,0.00,,---,0.00,VWS V14.01,2013-07-10 16:50:00,
2013-07-10 12:52:00,82.5,76.4,29.97,SSW,200,3.0,4.0,82,0.00,,---,0.00,VWS V14.01,2013-07-10 16:52:00,
2013-07-10 12:57:00,82.5,76.4,29.96,WSW,249,0.0,4.0,82,0.00,,---,0.00,VWS V14.01,2013-07-10 16:57:00,
2013-07-10 13:00:00,82.5,76.8,29.96,SW,224,1.0,4.0,83,0.00,,---,0.00,VWS V14.01,2013-07-10 17:00:00,
2013-07-10 13:02:00,82.7,76.7,29.96,SSW,210,3.0,3.0,82,0.00,,---,0.00,VWS V14.01,2013-07-10 17:02:00,
2013-07-10 13:07:00,82.8,76.8,29.96,SW,235,3.0,4.0,82,0.00,,---,0.00,VWS V14.01,2013-07-10 17:07:00,
2013-07-10 13:10:00,82.8,76.8,29.96,WSW,250,2.0,4.0,82,0.00,,---,0.00,VWS V14.01,2013-07-10 17:10:00,
2013-07-10 13:12:00,82.8,76.4,29.96,West,259,1.0,2.0,81,0.00,,---,0.00,VWS V14.01,2013-07-10 17:12:00,
2013-07-10 13:17:00,83.0,76.6,29.96,WSW,253,0.0,3.0,81,0.00,,---,0.00,VWS V14.01,2013-07-10 17:17:00,
2013-07-10 13:20:00,83.3,76.5,29.95,SSW,211,3.0,4.0,80,0.00,,---,0.00,VWS V14.01,2013-07-10 17:20:00,
2013-07-10 13:22:00,83.7,77.6,29.95,WNW,287,2.0,3.0,82,0.00,,---,0.00,VWS V14.01,2013-07-10 17:22:00,
2013-07-10 13:27:00,84.1,76.9,29.95,SSW,201,0.0,3.0,79,0.00,,---,0.00,VWS V14.01,2013-07-10 17:27:00,
2013-07-10 13:30:00,84.5,77.3,29.95,SE,141,0.0,3.0,79,0.00,,---,0.00,VWS V14.01,2013-07-10 17:30:00,
2013-07-10 13:32:00,84.9,77.3,29.95,ESE,104,0.0,2.0,78,0.00,,---,0.00,VWS V14.01,2013-07-10 17:32:00,
2013-07-10 13:37:00,85.3,76.9,29.95,West,267,2.0,2.0,76,0.00,,---,0.00,VWS V14.01,2013-07-10 17:37:00,
2013-07-10 13:40:00,85.2,76.4,29.95,West,259,1.0,4.0,75,0.00,,---,0.00,VWS V14.01,2013-07-10 17:40:00,
2013-07-10 13:42:00,85.1,76.3,29.95,West,263,0.0,1.0,75,0.00,,---,0.00,VWS V14.01,2013-07-10 17:42:00,
2013-07-10 13:47:00,85.6,76.4,29.94,WNW,285,0.0,4.0,74,0.00,,---,0.00,VWS V14.01,2013-07-10 17:47:00,
2013-07-10 13:50:00,85.9,77.1,29.94,NW,306,3.0,4.0,75,0.00,,---,0.00,VWS V14.01,2013-07-10 17:50:00,
2013-07-10 13:52:00,86.0,76.8,29.94,SW,235,4.0,5.0,74,0.00,,---,0.00,VWS V14.01,2013-07-10 17:52:00,
2013-07-10 13:57:00,86.1,76.8,29.94,WSW,257,3.0,5.0,74,0.00,,---,0.00,VWS V14.01,2013-07-10 17:57:00,
2013-07-10 14:00:00,86.2,76.1,29.94,SSW,211,2.0,5.0,72,0.00,,---,0.00,VWS V14.01,2013-07-10 18:00:00,
2013-07-10 14:02:00,86.2,76.9,29.94,West,259,2.0,6.0,74,0.00,,---,0.00,VWS V14.01,2013-07-10 18:02:00,
2013-07-10 14:07:00,85.9,75.4,29.93,West,269,3.0,6.0,71,0.00,,---,0.00,VWS V14.01,2013-07-10 18:07:00,
2013-07-10 14:10:00,85.8,75.3,29.94,West,271,3.0,6.0,71,0.00,,---,0.00,VWS V14.01,2013-07-10 18:10:00,
2013-07-10 14:12:00,85.7,76.1,29.93,West,262,2.0,4.0,73,0.00,,---,0.00,VWS V14.01,2013-07-10 18:12:00,
2013-07-10 14:17:00,85.9,76.2,29.93,West,281,2.0,4.0,73,0.00,,---,0.00,VWS V14.01,2013-07-10 18:17:00,
2013-07-10 14:20:00,86.0,76.3,29.93,WNW,289,1.0,4.0,73,0.00,,---,0.00,VWS V14.01,2013-07-10 18:20:00,
2013-07-10 14:22:00,86.2,76.1,29.93,WNW,290,3.0,4.0,72,0.00,,---,0.00,VWS V14.01,2013-07-10 18:22:00,
2013-07-10 14:27:00,86.2,76.1,29.93,WSW,248,1.0,4.0,72,0.00,,---,0.00,VWS V14.01,2013-07-10 18:27:00,
2013-07-10 14:30:00,86.4,77.5,29.92,WSW,238,1.0,4.0,75,0.00,,---,0.00,VWS V14.01,2013-07-10 18:30:00,
2013-07-10 14:32:00,86.6,76.9,29.92,SSW,203,1.0,3.0,73,0.00,,---,0.00,VWS V14.01,2013-07-10 18:32:00,
2013-07-10 14:37:00,86.7,77.4,29.92,West,271,1.0,3.0,74,0.00,,---,0.00,VWS V14.01,2013-07-10 18:37:00,
2013-07-10 14:40:00,86.8,76.7,29.92,West,267,1.0,3.0,72,0.00,,---,0.00,VWS V14.01,2013-07-10 18:40:00,
2013-07-10 14:42:00,86.8,77.1,29.92,WSW,257,2.0,4.0,73,0.00,,---,0.00,VWS V14.01,2013-07-10 18:42:00,
2013-07-10 14:47:00,87.4,77.3,29.92,West,273,1.0,4.0,72,0.00,,---,0.00,VWS V14.01,2013-07-10 18:47:00,
2013-07-10 14:50:00,87.5,77.4,29.92,WSW,242,4.0,4.0,72,0.00,,---,0.00,VWS V14.01,2013-07-10 18:50:00,
2013-07-10 14:52:00,87.6,75.3,29.91,WNW,302,0.0,4.0,67,0.00,,---,0.00,VWS V14.01,2013-07-10 18:52:00,
2013-07-10 14:57:00,88.1,76.7,29.91,SW,228,1.0,5.0,69,0.00,,---,0.00,VWS V14.01,2013-07-10 18:57:00,
2013-07-10 15:00:00,88.4,75.6,29.91,SW,232,0.0,5.0,66,0.00,,---,0.00,VWS V14.01,2013-07-10 19:00:00,
2013-07-10 15:02:00,89.2,77.3,29.91,ENE,63,0.0,2.0,68,0.00,,---,0.00,VWS V14.01,2013-07-10 19:02:00,
2013-07-10 15:07:00,90.2,76.8,29.90,West,274,3.0,3.0,65,0.00,,---,0.00,VWS V14.01,2013-07-10 19:07:00,
2013-07-10 15:10:00,90.2,75.4,29.90,WNW,291,0.0,3.0,62,0.00,,---,0.00,VWS V14.01,2013-07-10 19:10:00,
2013-07-10 15:12:00,90.2,73.9,29.90,SW,225,2.0,3.0,59,0.00,,---,0.00,VWS V14.01,2013-07-10 19:12:00,
2013-07-10 15:17:00,90.3,73.5,29.90,SE,135,0.0,3.0,58,0.00,,---,0.00,VWS V14.01,2013-07-10 19:17:00,
2013-07-10 15:20:00,90.5,74.2,29.90,ENE,69,0.0,3.0,59,0.00,,---,0.00,VWS V14.01,2013-07-10 19:20:00,
2013-07-10 15:22:00,90.4,75.1,29.89,NE,56,2.0,3.0,61,0.00,,---,0.00,VWS V14.01,2013-07-10 19:22:00,
2013-07-10 15:27:00,89.2,75.9,29.89,WNW,300,2.0,3.0,65,0.00,,---,0.00,VWS V14.01,2013-07-10 19:27:00,
2013-07-10 15:30:00,88.8,75.1,29.89,WNW,294,2.0,4.0,64,0.00,,---,0.00,VWS V14.01,2013-07-10 19:30:00,
2013-07-10 15:32:00,88.2,75.9,29.89,WNW,283,3.0,4.0,67,0.00,,---,0.00,VWS V14.01,2013-07-10 19:32:00,
2013-07-10 15:37:00,87.7,75.4,29.89,WNW,283,2.0,5.0,67,0.00,,---,0.00,VWS V14.01,2013-07-10 19:37:00,
2013-07-10 15:40:00,87.6,75.7,29.89,WNW,290,2.0,5.0,68,0.00,,---,0.00,VWS V14.01,2013-07-10 19:40:00,
2013-07-10 15:42:00,87.7,77.1,29.89,West,266,2.0,4.0,71,0.00,,---,0.00,VWS V14.01,2013-07-10 19:42:00,
2013-07-10 15:47:00,88.0,77.4,29.88,WNW,293,1.0,5.0,71,0.00,,---,0.00,VWS V14.01,2013-07-10 19:47:00,
2013-07-10 15:50:00,88.3,75.5,29.88,SW,232,3.0,5.0,66,0.00,,---,0.00,VWS V14.01,2013-07-10 19:50:00,
2013-07-10 15:52:00,88.4,76.1,29.88,NW,311,3.0,6.0,67,0.00,,---,0.00,VWS V14.01,2013-07-10 19:52:00,
2013-07-10 15:57:00,88.5,76.2,29.87,SSW,207,2.0,6.0,67,0.00,,---,0.00,VWS V14.01,2013-07-10 19:57:00,
2013-07-10 16:00:00,88.7,75.9,29.87,SW,221,3.0,6.0,66,0.00,,---,0.00,VWS V14.01,2013-07-10 20:00:00,
2013-07-10 16:02:00,88.8,75.5,29.87,West,259,5.0,5.0,65,0.00,,---,0.00,VWS V14.01,2013-07-10 20:02:00,
2013-07-10 16:07:00,88.5,75.2,29.87,SW,231,3.0,7.0,65,0.00,,---,0.00,VWS V14.01,2013-07-10 20:07:00,
2013-07-10 16:10:00,88.5,73.8,29.87,WNW,283,4.0,7.0,62,0.00,,---,0.00,VWS V14.01,2013-07-10 20:10:00,
2013-07-10 16:12:00,88.6,73.9,29.87,West,262,3.0,4.0,62,0.00,,---,0.00,VWS V14.01,2013-07-10 20:12:00,
2013-07-10 16:17:00,88.4,76.1,29.88,WSW,249,6.0,7.0,67,0.00,,---,0.00,VWS V14.01,2013-07-10 20:17:00,
2013-07-10 16:20:00,88.2,75.0,29.88,SW,229,17.0,19.0,65,0.00,,---,0.00,VWS V14.01,2013-07-10 20:20:00,
2013-07-10 16:22:00,85.9,71.8,29.89,SSW,205,8.0,25.0,63,0.00,,---,0.00,VWS V14.01,2013-07-10 20:22:00,
2013-07-10 16:27:00,83.0,71.8,29.90,SW,214,16.0,25.0,69,0.00,,---,0.00,VWS V14.01,2013-07-10 20:27:00,
2013-07-10 16:30:00,81.7,71.8,29.90,WSW,245,12.0,25.0,72,0.00,,---,0.00,VWS V14.01,2013-07-10 20:30:00,
2013-07-10 16:32:00,79.7,71.1,29.90,West,274,17.0,24.0,75,0.00,,---,0.00,VWS V14.01,2013-07-10 20:32:00,
2013-07-10 16:37:00,77.5,70.8,29.90,SSW,205,6.0,24.0,80,0.00,,---,0.00,VWS V14.01,2013-07-10 20:37:00,
2013-07-10 16:40:00,77.2,70.9,29.90,SW,221,4.0,24.0,81,0.00,,---,0.00,VWS V14.01,2013-07-10 20:40:00,
2013-07-10 16:42:00,77.0,71.1,29.90,South,190,3.0,11.0,82,0.00,,---,0.00,VWS V14.01,2013-07-10 20:42:00,
2013-07-10 16:47:00,76.8,71.2,29.90,SW,214,6.0,11.0,83,0.00,,---,0.00,VWS V14.01,2013-07-10 20:47:00,
2013-07-10 16:50:00,76.6,71.1,29.90,SW,228,7.0,11.0,83,0.01,,---,0.01,VWS V14.01,2013-07-10 20:50:00,
2013-07-10 16:52:00,76.1,71.6,29.90,SW,219,1.0,11.0,86,0.03,,---,0.03,VWS V14.01,2013-07-10 20:52:00,
2013-07-10 16:57:00,75.1,71.6,29.90,West,267,1.0,11.0,89,0.05,,---,0.05,VWS V14.01,2013-07-10 20:57:00,
2013-07-10 17:00:00,74.9,71.4,29.90,West,259,3.0,11.0,89,0.05,,---,0.05,VWS V14.01,2013-07-10 21:00:00,
2013-07-10 17:02:00,74.6,71.5,29.90,SW,235,10.0,10.0,90,0.05,,---,0.05,VWS V14.01,2013-07-10 21:02:00,
2013-07-10 17:07:00,74.3,71.2,29.90,SW,219,3.0,10.0,90,0.05,,---,0.05,VWS V14.01,2013-07-10 21:07:00,
2013-07-10 17:10:00,74.3,71.5,29.90,SW,235,0.0,10.0,91,0.05,,---,0.05,VWS V14.01,2013-07-10 21:10:00,
2013-07-10 17:12:00,74.2,71.4,29.90,WNW,294,3.0,5.0,91,0.05,,---,0.05,VWS V14.01,2013-07-10 21:12:00,
2013-07-10 17:17:00,74.2,71.4,29.90,WSW,257,2.0,6.0,91,0.05,,---,0.05,VWS V14.01,2013-07-10 21:17:00,
2013-07-10 17:20:00,74.2,71.4,29.90,SW,232,4.0,6.0,91,0.05,,---,0.05,VWS V14.01,2013-07-10 21:20:00,
2013-07-10 17:22:00,74.1,71.6,29.90,WSW,253,5.0,7.0,92,0.06,,---,0.06,VWS V14.01,2013-07-10 21:22:00,
2013-07-10 17:27:00,74.0,71.5,29.90,West,263,2.0,7.0,92,0.07,,---,0.07,VWS V14.01,2013-07-10 21:27:00,
2013-07-10 17:30:00,74.0,71.5,29.89,WSW,257,4.0,7.0,92,0.07,,---,0.07,VWS V14.01,2013-07-10 21:30:00,
2013-07-10 17:32:00,73.9,71.4,29.88,SSW,207,2.0,5.0,92,0.07,,---,0.07,VWS V14.01,2013-07-10 21:32:00,
2013-07-10 17:37:00,73.9,71.8,29.87,SSW,211,2.0,5.0,93,0.08,,---,0.08,VWS V14.01,2013-07-10 21:37:00,
2013-07-10 17:40:00,73.9,71.8,29.87,SSW,207,0.0,5.0,93,0.08,,---,0.08,VWS V14.01,2013-07-10 21:40:00,
2013-07-10 17:42:00,74.0,71.8,29.87,SW,215,0.0,2.0,93,0.08,,---,0.08,VWS V14.01,2013-07-10 21:42:00,
2013-07-10 17:47:00,74.2,72.4,29.87,SW,219,0.0,2.0,94,0.08,,---,0.08,VWS V14.01,2013-07-10 21:47:00,
2013-07-10 17:50:00,74.2,72.1,29.87,SW,231,0.0,2.0,93,0.08,,---,0.08,VWS V14.01,2013-07-10 21:50:00,
2013-07-10 17:52:00,74.2,72.1,29.87,WSW,245,0.0,1.0,93,0.07,,---,0.08,VWS V14.01,2013-07-10 21:52:00,
2013-07-10 17:57:00,74.3,72.2,29.88,WSW,255,1.0,1.0,93,0.07,,---,0.08,VWS V14.01,2013-07-10 21:57:00,
2013-07-10 18:00:00,74.3,72.5,29.88,WNW,285,2.0,2.0,94,0.07,,---,0.08,VWS V14.01,2013-07-10 22:00:00,
2013-07-10 18:02:00,74.3,72.5,29.88,West,270,0.0,2.0,94,0.03,,---,0.08,VWS V14.01,2013-07-10 22:02:00,
2013-07-10 18:07:00,74.3,72.5,29.88,WSW,250,0.0,2.0,94,0.03,,---,0.08,VWS V14.01,2013-07-10 22:07:00,
2013-07-10 18:10:00,74.4,72.6,29.88,West,266,0.0,2.0,94,0.03,,---,0.08,VWS V14.01,2013-07-10 22:10:00,
2013-07-10 18:12:00,74.4,72.6,29.88,West,278,2.0,3.0,94,0.03,,---,0.08,VWS V14.01,2013-07-10 22:12:00,
2013-07-10 18:17:00,74.5,72.7,29.88,WSW,250,0.0,3.0,94,0.03,,---,0.08,VWS V14.01,2013-07-10 22:17:00,
2013-07-10 18:20:00,74.5,72.7,29.88,SW,214,1.0,3.0,94,0.03,,---,0.08,VWS V14.01,2013-07-10 22:20:00,
2013-07-10 18:22:00,74.5,72.7,29.89,WSW,248,2.0,3.0,94,0.03,,---,0.08,VWS V14.01,2013-07-10 22:22:00,
2013-07-10 18:27:00,74.5,72.3,29.89,SSE,148,1.0,4.0,93,0.03,,---,0.08,VWS V14.01,2013-07-10 22:27:00,
2013-07-10 18:30:00,74.6,72.4,29.89,SW,228,1.0,4.0,93,0.03,,---,0.08,VWS V14.01,2013-07-10 22:30:00,
2013-07-10 18:32:00,74.6,72.4,29.89,South,170,0.0,2.0,93,0.01,,---,0.08,VWS V14.01,2013-07-10 22:32:00,
2013-07-10 18:37:00,74.7,72.9,29.90,ESE,120,0.0,2.0,94,0.01,,---,0.08,VWS V14.01,2013-07-10 22:37:00,
2013-07-10 18:40:00,74.7,72.5,29.90,ESE,120,0.0,2.0,93,0.01,,---,0.08,VWS V14.01,2013-07-10 22:40:00,
2013-07-10 18:42:00,74.7,72.9,29.90,ESE,118,0.0,0.0,94,0.00,,---,0.08,VWS V14.01,2013-07-10 22:42:00,
2013-07-10 18:47:00,74.6,72.8,29.90,ESE,117,0.0,1.0,94,0.00,,---,0.08,VWS V14.01,2013-07-10 22:47:00,
2013-07-10 18:50:00,74.6,72.8,29.90,ESE,117,0.0,1.0,94,0.00,,---,0.08,VWS V14.01,2013-07-10 22:50:00,
2013-07-10 18:52:00,74.5,72.7,29.90,ESE,117,0.0,0.0,94,0.01,,---,0.09,VWS V14.01,2013-07-10 22:52:00,
2013-07-10 18:58:00,74.6,73.1,29.89,SSE,163,1.0,2.0,95,0.01,,---,0.09,VWS V14.01,2013-07-10 22:58:00,
2013-07-10 19:00:00,74.6,73.1,29.89,ESE,108,2.0,2.0,95,0.01,,---,0.09,VWS V14.01,2013-07-10 23:00:00,
2013-07-10 19:03:00,74.3,72.5,29.89,SE,146,2.0,4.0,94,0.01,,---,0.09,VWS V14.01,2013-07-10 23:03:00,
2013-07-10 19:08:00,74.5,72.7,29.90,SSE,156,1.0,4.0,94,0.01,,---,0.09,VWS V14.01,2013-07-10 23:08:00,
2013-07-10 19:10:00,74.4,72.2,29.90,SE,127,3.0,4.0,93,0.01,,---,0.09,VWS V14.01,2013-07-10 23:10:00,
2013-07-10 19:13:00,74.3,72.2,29.90,ESE,114,0.0,3.0,93,0.01,,---,0.09,VWS V14.01,2013-07-10 23:13:00,
2013-07-10 19:18:00,74.2,72.1,29.90,East,83,0.0,3.0,93,0.01,,---,0.09,VWS V14.01,2013-07-10 23:18:00,
2013-07-10 19:20:00,74.1,71.9,29.90,East,83,0.0,3.0,93,0.01,,---,0.09,VWS V14.01,2013-07-10 23:20:00,
2013-07-10 19:23:00,74.1,72.3,29.90,East,84,0.0,1.0,94,0.01,,---,0.09,VWS V14.01,2013-07-10 23:23:00,
2013-07-10 19:28:00,74.0,72.2,29.90,East,87,2.0,2.0,94,0.01,,---,0.09,VWS V14.01,2013-07-10 23:28:00,
2013-07-10 19:30:00,74.0,72.2,29.91,ESE,103,1.0,2.0,94,0.01,,---,0.09,VWS V14.01,2013-07-10 23:30:00,
2013-07-10 19:33:00,73.8,72.3,29.91,ESE,105,3.0,4.0,95,0.01,,---,0.09,VWS V14.01,2013-07-10 23:33:00,
2013-07-10 19:38:00,73.5,72.0,29.91,SE,126,0.0,7.0,95,0.01,,---,0.09,VWS V14.01,2013-07-10 23:38:00,
2013-07-10 19:40:00,73.5,72.0,29.91,ESE,108,1.0,7.0,95,0.01,,---,0.09,VWS V14.01,2013-07-10 23:40:00,
2013-07-10 19:43:00,73.3,71.8,29.91,SE,127,0.0,2.0,95,0.01,,---,0.09,VWS V14.01,2013-07-10 23:43:00,
2013-07-10 19:48:00,73.3,71.8,29.90,East,93,0.0,2.0,95,0.01,,---,0.09,VWS V14.01,2013-07-10 23:48:00,
2013-07-10 19:50:00,73.3,71.8,29.91,ESE,111,0.0,2.0,95,0.01,,---,0.09,VWS V14.01,2013-07-10 23:50:00,
2013-07-10 19:53:00,73.3,71.8,29.91,East,99,0.0,3.0,95,0.01,,---,0.09,VWS V14.01,2013-07-10 23:53:00,
2013-07-10 19:58:00,73.3,71.8,29.91,ESE,113,2.0,3.0,95,0.01,,---,0.09,VWS V14.01,2013-07-10 23:58:00,
2013-07-10 20:00:00,73.2,71.7,29.91,ESE,113,0.0,3.0,95,0.01,,---,0.09,VWS V14.01,2013-07-11 00:00:00,
2013-07-10 20:03:00,73.1,71.6,29.91,ESE,116,1.0,3.0,95,0.00,,---,0.09,VWS V14.01,2013-07-11 00:03:00,
2013-07-10 20:08:00,73.1,71.6,29.91,ESE,109,1.0,3.0,95,0.00,,---,0.09,VWS V14.01,2013-07-11 00:08:00,
2013-07-10 20:10:00,73.0,71.5,29.91,ESE,117,1.0,3.0,95,0.00,,---,0.09,VWS V14.01,2013-07-11 00:10:00,
2013-07-10 20:13:00,73.0,71.8,29.91,WSW,238,2.0,4.0,96,0.00,,---,0.09,VWS V14.01,2013-07-11 00:13:00,
2013-07-10 20:18:00,73.1,71.9,29.91,SSW,201,0.0,4.0,96,0.00,,---,0.09,VWS V14.01,2013-07-11 00:18:00,
2013-07-10 20:20:00,73.1,71.9,29.91,SE,124,0.0,4.0,96,0.00,,---,0.09,VWS V14.01,2013-07-11 00:20:00,
2013-07-10 20:23:00,73.1,71.9,29.91,South,186,0.0,0.0,96,0.00,,---,0.09,VWS V14.01,2013-07-11 00:23:00,
2013-07-10 20:28:00,73.0,71.8,29.91,SSE,161,0.0,1.0,96,0.00,,---,0.09,VWS V14.01,2013-07-11 00:28:00,
2013-07-10 20:30:00,73.0,71.8,29.91,SSE,161,0.0,1.0,96,0.00,,---,0.09,VWS V14.01,2013-07-11 00:30:00,
2013-07-10 20:33:00,73.0,71.5,29.91,SSW,208,1.0,1.0,95,0.00,,---,0.09,VWS V14.01,2013-07-11 00:33:00,
2013-07-10 20:38:00,72.9,71.4,29.91,WNW,296,1.0,2.0,95,0.00,,---,0.09,VWS V14.01,2013-07-11 00:38:00,
2013-07-10 20:40:00,73.0,71.5,29.91,WNW,282,2.0,2.0,95,0.00,,---,0.09,VWS V14.01,2013-07-11 00:40:00,
2013-07-10 20:43:00,73.1,71.9,29.91,WNW,288,1.0,2.0,96,0.00,,---,0.09,VWS V14.01,2013-07-11 00:43:00,
2013-07-10 20:48:00,73.1,71.9,29.91,WNW,293,0.0,2.0,96,0.00,,---,0.09,VWS V14.01,2013-07-11 00:48:00,
2013-07-10 20:50:00,73.1,71.9,29.91,WNW,288,0.0,2.0,96,0.00,,---,0.09,VWS V14.01,2013-07-11 00:50:00,
2013-07-10 20:53:00,73.0,71.8,29.91,West,278,1.0,2.0,96,0.00,,---,0.09,VWS V14.01,2013-07-11 00:53:00,
2013-07-10 20:58:00,72.9,71.7,29.91,WSW,252,2.0,3.0,96,0.00,,---,0.09,VWS V14.01,2013-07-11 00:58:00,
2013-07-10 21:00:00,72.9,71.7,29.91,SW,235,0.0,3.0,96,0.00,,---,0.09,VWS V14.01,2013-07-11 01:00:00,
2013-07-10 21:03:00,72.9,71.7,29.91,SW,215,0.0,1.0,96,0.00,,---,0.09,VWS V14.01,2013-07-11 01:03:00,
2013-07-10 21:08:00,72.9,71.7,29.91,SSW,200,0.0,2.0,96,0.00,,---,0.09,VWS V14.01,2013-07-11 01:08:00,
2013-07-10 21:10:00,72.8,71.6,29.91,SSW,198,0.0,2.0,96,0.00,,---,0.09,VWS V14.01,2013-07-11 01:10:00,
2013-07-10 21:13:00,72.8,71.6,29.91,SSW,199,0.0,0.0,96,0.00,,---,0.09,VWS V14.01,2013-07-11 01:13:00,
2013-07-10 21:18:00,72.7,71.5,29.91,SSW,198,0.0,0.0,96,0.00,,---,0.09,VWS V14.01,2013-07-11 01:18:00,
2013-07-10 21:20:00,72.7,71.5,29.91,SSW,200,0.0,0.0,96,0.00,,---,0.09,VWS V14.01,2013-07-11 01:20:00,
2013-07-10 21:23:00,72.6,71.4,29.91,SW,221,0.0,0.0,96,0.00,,---,0.09,VWS V14.01,2013-07-11 01:23:00,
2013-07-10 21:28:00,72.6,71.4,29.91,WSW,249,0.0,1.0,96,0.00,,---,0.09,VWS V14.01,2013-07-11 01:28:00,
2013-07-10 21:30:00,72.6,71.4,29.91,WNW,285,1.0,2.0,96,0.00,,---,0.09,VWS V14.01,2013-07-11 01:30:00,
2013-07-10 21:33:00,72.6,71.4,29.90,West,271,0.0,1.0,96,0.00,,---,0.09,VWS V14.01,2013-07-11 01:33:00,
2013-07-10 21:38:00,72.5,71.3,29.90,WNW,292,0.0,1.0,96,0.00,,---,0.09,VWS V14.01,2013-07-11 01:38:00,
2013-07-10 21:40:00,72.6,71.4,29.90,WNW,293,0.0,1.0,96,0.00,,---,0.09,VWS V14.01,2013-07-11 01:40:00,
2013-07-10 21:43:00,72.5,71.3,29.89,SSW,198,0.0,1.0,96,0.00,,---,0.09,VWS V14.01,2013-07-11 01:43:00,
2013-07-10 21:48:00,72.4,70.9,29.89,WSW,253,0.0,2.0,95,0.00,,---,0.09,VWS V14.01,2013-07-11 01:48:00,
2013-07-10 21:50:00,72.4,70.9,29.88,WSW,253,0.0,2.0,95,0.00,,---,0.09,VWS V14.01,2013-07-11 01:50:00,
2013-07-10 21:53:00,72.3,70.8,29.88,SW,217,0.0,0.0,95,0.00,,---,0.09,VWS V14.01,2013-07-11 01:53:00,
2013-07-10 21:58:00,72.3,70.8,29.88,WNW,288,2.0,2.0,95,0.00,,---,0.09,VWS V14.01,2013-07-11 01:58:00,
2013-07-10 22:00:00,72.3,70.8,29.88,WSW,242,2.0,2.0,95,0.00,,---,0.09,VWS V14.01,2013-07-11 02:00:00,
2013-07-10 22:03:00,72.3,70.8,29.88,SW,221,0.0,2.0,95,0.00,,---,0.09,VWS V14.01,2013-07-11 02:03:00,
2013-07-10 22:08:00,72.2,70.7,29.88,WSW,251,0.0,2.0,95,0.00,,---,0.09,VWS V14.01,2013-07-11 02:08:00,
2013-07-10 22:10:00,72.2,70.7,29.88,WSW,252,0.0,2.0,95,0.00,,---,0.09,VWS V14.01,2013-07-11 02:10:00,
2013-07-10 22:13:00,72.2,70.7,29.88,SW,214,0.0,2.0,95,0.00,,---,0.09,VWS V14.01,2013-07-11 02:13:00,
2013-07-10 22:18:00,72.2,70.7,29.88,SSW,211,0.0,4.0,95,0.00,,---,0.09,VWS V14.01,2013-07-11 02:18:00,
2013-07-10 22:20:00,72.2,70.7,29.88,WSW,240,0.0,4.0,95,0.00,,---,0.09,VWS V14.01,2013-07-11 02:20:00,
2013-07-10 22:23:00,72.1,70.6,29.88,SW,229,0.0,3.0,95,0.00,,---,0.09,VWS V14.01,2013-07-11 02:23:00,
2013-07-10 22:28:00,72.2,70.7,29.89,NW,325,0.0,3.0,95,0.00,,---,0.09,VWS V14.01,2013-07-11 02:28:00,
2013-07-10 22:30:00,72.2,70.7,29.89,NW,325,0.0,3.0,95,0.00,,---,0.09,VWS V14.01,2013-07-11 02:30:00,
2013-07-10 22:33:00,72.2,70.7,29.89,NNW,332,0.0,1.0,95,0.00,,---,0.09,VWS V14.01,2013-07-11 02:33:00,
2013-07-10 22:38:00,72.1,70.6,29.89,NNW,331,0.0,1.0,95,0.00,,---,0.09,VWS V14.01,2013-07-11 02:38:00,
2013-07-10 22:40:00,72.1,70.6,29.89,NNW,331,0.0,1.0,95,0.00,,---,0.09,VWS V14.01,2013-07-11 02:40:00,
2013-07-10 22:43:00,72.1,70.9,29.89,SW,221,0.0,0.0,96,0.00,,---,0.09,VWS V14.01,2013-07-11 02:43:00,
2013-07-10 22:48:00,72.0,70.8,29.89,SSW,212,0.0,1.0,96,0.00,,---,0.09,VWS V14.01,2013-07-11 02:48:00,
2013-07-10 22:50:00,72.0,70.8,29.89,SW,221,2.0,2.0,96,0.00,,---,0.09,VWS V14.01,2013-07-11 02:50:00,
2013-07-10 22:53:00,72.0,70.8,29.89,SW,215,2.0,3.0,96,0.00,,---,0.09,VWS V14.01,2013-07-11 02:53:00,
2013-07-10 22:58:00,72.0,70.8,29.90,SSW,211,1.0,3.0,96,0.00,,---,0.09,VWS V14.01,2013-07-11 02:58:00,
2013-07-10 23:00:00,72.0,70.8,29.90,SSW,207,0.0,3.0,96,0.00,,---,0.09,VWS V14.01,2013-07-11 03:00:00,
2013-07-10 23:03:00,72.0,70.8,29.90,SE,145,0.0,1.0,96,0.00,,---,0.09,VWS V14.01,2013-07-11 03:03:00,
2013-07-10 23:08:00,72.0,70.8,29.90,SE,126,0.0,1.0,96,0.00,,---,0.09,VWS V14.01,2013-07-11 03:08:00,
2013-07-10 23:10:00,72.0,70.8,29.90,SE,126,0.0,1.0,96,0.00,,---,0.09,VWS V14.01,2013-07-11 03:10:00,
2013-07-10 23:13:00,72.0,70.8,29.90,ESE,115,0.0,1.0,96,0.00,,---,0.09,VWS V14.01,2013-07-11 03:13:00,
2013-07-10 23:18:00,72.0,70.8,29.90,SE,124,0.0,1.0,96,0.00,,---,0.09,VWS V14.01,2013-07-11 03:18:00,
2013-07-10 23:20:00,72.0,70.8,29.90,SE,124,0.0,1.0,96,0.00,,---,0.09,VWS V14.01,2013-07-11 03:20:00,
2013-07-10 23:23:00,71.9,70.7,29.90,SE,146,0.0,1.0,96,0.00,,---,0.09,VWS V14.01,2013-07-11 03:23:00,
2013-07-10 23:28:00,71.9,70.7,29.90,SSE,152,1.0,1.0,96,0.00,,---,0.09,VWS V14.01,2013-07-11 03:28:00,
2013-07-10 23:30:00,71.9,70.7,29.89,SSE,152,1.0,1.0,96,0.00,,---,0.09,VWS V14.01,2013-07-11 03:30:00,
2013-07-10 23:33:00,71.8,70.6,29.89,SSE,150,0.0,2.0,96,0.00,,---,0.09,VWS V14.01,2013-07-11 03:33:00,
2013-07-10 23:38:00,71.8,70.6,29.89,SSW,201,0.0,2.0,96,0.00,,---,0.09,VWS V14.01,2013-07-11 03:38:00,
2013-07-10 23:40:00,71.8,70.6,29.89,SSW,201,0.0,2.0,96,0.00,,---,0.09,VWS V14.01,2013-07-11 03:40:00,
2013-07-10 23:44:00,71.8,70.6,29.89,SSW,195,0.0,1.0,96,0.00,,---,0.09,VWS V14.01,2013-07-11 03:44:00,
2013-07-10 23:49:00,72.0,71.1,29.88,SW,218,0.0,3.0,97,0.00,,---,0.09,VWS V14.01,2013-07-11 03:49:00,
2013-07-10 23:50:00,72.0,71.1,29.88,SW,218,0.0,3.0,97,0.00,,---,0.09,VWS V14.01,2013-07-11 03:50:00,
2013-07-10 23:53:00,72.1,70.9,29.88,SW,218,0.0,0.0,96,0.00,,---,0.09,VWS V14.01,2013-07-11 03:53:00,
2013-07-10 23:58:00,72.2,71.0,29.88,SSW,205,1.0,1.0,96,0.00,,---,0.09,VWS V14.01,2013-07-11 03:58:00,